Home   Weather   Indre Arna   Past weeks

Flag for Norway Past Weather in Indre Arna, Norway — Yesterday and Last 2 Weeks

Now
33 °F

Chilly.


Feels Like: 29 °F
Forecast: 30 / 39 °F
Wind: 5 mph from Southeast

Location: Bergen / Florida

Current Time: Jan 16, 2017 at 6:44:21 pm

Latest Report: Jan 16, 2017 at 5:00 pm


Visibility: N/A

Pressure: 30.39 "Hg

Humidity: 37%

Dew Point: 10 °F

Location of Indre ArnaLocation

Past Weather in Indre Arna — Graph

°F

Indre Arna Temperature Yesterday

Maximum temperature yesterday: 29 °F (at 1:00 pm)
Minimum temperature yesterday: 22 °F (at 9:00 pm)
Average temperature yesterday: 25 °F

High & Low Weather Summary for the Past Weeks

 TemperatureHumidityPressure
High46 °F (Jan 9, 5:00 pm)90% (Jan 8, 5:00 pm)30.59 "Hg (Jan 8, 5:00 pm)
Low20 °F (Jan 16, 7:00 am)37% (Jan 16, 5:00 pm)28.56 "Hg (Jan 11, 9:00 am)
Average35 °F79%29.77 "Hg
* Reported Jan 1 5:00 pm — Jan 16 5:00 pm, Indre Arna, Weather by CustomWeather, © 2017

Note: Actual official high and low records may vary slightly from our data, if they occured in-between our weather recording intervals... More about our weather records

Advertising

Indre Arna Weather History for the Previous 24 Hours

Scroll right to see more
 ConditionsComfort  
Time TempWeatherWind HumidityBarometerVisibility
5:00 pm
Mon, Jan 16
33 °FChilly.5 mph37%30.39 "HgN/A
4:00 pm33 °FOvercast.3 mph38%30.40 "Hg25 mi
3:00 pm32 °FChilly.5 mph48%30.39 "HgN/A
2:00 pm32 °FChilly.3 mph58%30.38 "HgN/A
1:00 pm32 °FPassing clouds.3 mph66%30.38 "Hg25 mi
12:00 pm28 °FChilly.2 mph77%30.39 "HgN/A
11:00 am24 °FCold.1 mph82%30.38 "HgN/A
10:00 am22 °FPassing clouds.2 mph85%30.37 "Hg19 mi
9:00 am22 °FCold.2 mph85%30.35 "HgN/A
8:00 am22 °FCold.1 mph86%30.35 "HgN/A
7:00 am20 °FClear.1 mph84%30.33 "Hg19 mi
6:00 am21 °FCold.3 mph86%30.32 "HgN/A
5:00 am21 °FCold.1 mph87%30.32 "HgN/A
4:00 am21 °FCold.1 mph86%30.31 "HgN/A
3:00 am21 °FCold.1 mph87%30.30 "HgN/A
2:00 am21 °FCold.2 mph87%30.31 "HgN/A
1:00 am22 °FCold.1 mph87%30.31 "HgN/A
12:00 am23 °FCold.1 mph87%30.30 "HgN/A
11:00 pm
Sun, Jan 15
22 °FCold.1 mph86%30.29 "HgN/A
10:00 pm23 °FClear.1 mph87%30.28 "Hg9 mi
9:00 pm22 °FCold.1 mph85%30.27 "HgN/A
8:00 pm23 °FCold.1 mph86%30.26 "HgN/A
7:00 pm24 °FCold.1 mph84%30.25 "HgN/A
6:00 pm25 °FCold.1 mph84%30.24 "HgN/A
Weather by CustomWeather, © 2017

See weather overviewHow to use our weather pages